Regional Weather Roundup
Issued by NWS Bismarck, ND

Home | Current Version | Previous Version | Text Only | Print | Product List | Glossary On
Versions: 1 2 3 4 5 6 7 8 9 10 11 12 13 14 15 16 17 18 19 20 21 22 23 24 25 26 27 28 29 30 31 32 33 34 35 36 37 38 39 40 41 42 43 44 45 46 47 48 49 50
000
ASUS43 KBIS 231610
RWRBIS

NWR BROADCAST TEXT
NATIONAL WEATHER SERVICE BISMARCK ND
1000 AM CST FRI FEB 23 2018

NOTE: "FAIR" INDICATES FEW OR NO CLOUDS BELOW 12,000 FEET WITH NO
SIGNIFICANT WEATHER AND/OR OBSTRUCTIONS TO VISIBILITY.


CITY           SKY/WX    TMP DP  RH WIND       PRES   REMARKS
WILLISTON      CLOUDY    -3  -9  75 SW12      30.23F WCI -21
MINOT          LGT SNOW   8   4  83 SW12      30.20R FOG     WCI  -7
MINOT AFB      FLURRIES   9   4  80 W8        30.19S WCI  -3
BISMARCK       FAIR       8   0  69 NW9       30.26R WCI  -5
DICKINSON      FAIR       2  -7  66 W5        30.16S WCI  -8
GARRISON         N/A      3  -1  83 W9        30.21F WCI -12
HETTINGER ARPT SUNNY     -3 -10  72 NW8       30.20F WCI -18
JAMESTOWN      FAIR      10   2  69 NW16      30.18S WCI  -7
CARRINGTON     FAIR       3   0  85 W15       30.22S WCI -15
HAZEN          FLURRIES   0  -6  78 SW10      30.27F WCI -17
LINTON           N/A      5  -4  66 W8        30.26S WCI  -8
MANDAN         FAIR       3  -2  78 NW12      30.24R WCI -13
OAKES            N/A     14   9  79 NW14      30.22R WCI  -1
RUGBY          CLOUDY     1   0  92 W9        30.20R WCI -14
STANLEY        FLURRIES   3   1  92 W10       30.19S WCI -12
TIOGA          CLOUDY     1   0  92 W12       30.18S WCI -15
WATFORD CITY   FAIR      -6 -11  77 SW10      30.23S WCI -23
$$

CITY           SKY/WX    TMP DP  RH WIND       PRES   REMARKS
GRAND FORKS    PTSUNNY   14   6  70 W12       30.18R WCI   0
GRAND FORKS AF FAIR      13   2  62 NW13      30.18R WCI  -2
DEVILS LAKE    FAIR       0  -5  79 W9        30.19R WCI -15
FARGO          FAIR      17  13  84 NW10      30.19R WCI   5
CANDO          FAIR       0  -6  78 NW7       30.20S WCI -13
CAVALIER         N/A     10   1  67 NW12      30.18R WCI  -4
GRAFTON        FAIR      12   3  67 NW10      30.21R WCI  -1
GWINNER          N/A     14   9  79 NW16      30.20R WCI  -2
LANGDON        FAIR       1  -2  85 NW13      30.14S WCI -16
ROLLA          PTSUNNY    5   1  85 N10       30.14S WCI -10
WALHALLA       FAIR       9   0  66 W8        30.18S WCI  -4
$$

CITY           SKY/WX    TMP DP  RH WIND       PRES   REMARKS
ABERDEEN       SUNNY     16  11  80 NW6       30.25R WCI   7
MOBRIDGE       SUNNY      7  -2  66 NW16      30.23R WCI -11
BUFFALO          N/A      2  -6  69 W5        30.09S WCI  -8
RAPID CITY     SUNNY      8   0  69 CALM      30.18S
GLASGOW        MOSUNNY  -11 -16  78 SE10      30.17F WCI -30
SIDNEY         FLURRIES  -6 -12  75 S9          N/A  WCI -23
WOLF POINT     MOSUNNY  -12 -17  78 W5        30.24F WCI -24
GLENDIVE       SUNNY    -10 -17  71 S7        30.22S WCI -25
MILES CITY     SUNNY    -11 -14  86 SE7       30.21S WCI -26
BAKER          SUNNY    -12 -14  90 CALM      30.18S
$$

CITY           SKY/WX    TMP DP  RH WIND       PRES   REMARKS
BILLINGS       SUNNY      0  -6  76 SW10      30.11S WCI -16
GREAT FALLS    SUNNY      8  -1  66 S18       29.99F WCI -11
REGINA         MOSUNNY    3   0  85 SE3       30.10F
ESTEVAN        CLOUDY     9   3  78 W8        30.16F WCI  -4
$$





USA.gov is the U.S. government's official web portal to all federal, state and local government web resources and services.